Year,Month,Day,Hour,Minute,Value (Times are PST for temperature in C)
2013,07,27,00,00,13.30
2013,07,27,00,01,13.30
2013,07,27,00,02,13.30
2013,07,27,00,03,13.30
2013,07,27,00,04,13.30
2013,07,27,00,05,13.30
2013,07,27,00,06,13.20
2013,07,27,00,07,13.20
2013,07,27,00,08,13.20
2013,07,27,00,09,13.20
2013,07,27,00,10,13.20
2013,07,27,00,11,13.20
2013,07,27,00,12,13.10
2013,07,27,00,13,13.10
2013,07,27,00,14,13.10
2013,07,27,00,15,13.10
2013,07,27,00,16,13.10
2013,07,27,00,17,13.10
2013,07,27,00,18,13.00
2013,07,27,00,19,13.00
2013,07,27,00,20,13.00
2013,07,27,00,21,13.00
2013,07,27,00,22,13.00
2013,07,27,00,23,12.90
2013,07,27,00,24,12.90
2013,07,27,00,25,12.90
2013,07,27,00,26,12.90
2013,07,27,00,27,12.90
2013,07,27,00,28,12.80
2013,07,27,00,29,12.80
2013,07,27,00,30,12.80
2013,07,27,00,31,12.80
2013,07,27,00,32,12.80
2013,07,27,00,33,12.70
2013,07,27,00,34,12.70
2013,07,27,00,35,12.70
2013,07,27,00,36,12.70
2013,07,27,00,37,12.70
2013,07,27,00,38,12.60
2013,07,27,00,39,12.60
2013,07,27,00,40,12.60
2013,07,27,00,41,12.60
2013,07,27,00,42,12.50
2013,07,27,00,43,12.50
2013,07,27,00,44,12.50
2013,07,27,00,45,12.40
2013,07,27,00,46,12.40
2013,07,27,00,47,12.40
2013,07,27,00,48,12.40
2013,07,27,00,49,12.40
2013,07,27,00,50,12.30
2013,07,27,00,51,12.30
2013,07,27,00,52,12.30
2013,07,27,00,53,12.30
2013,07,27,00,54,12.30
2013,07,27,00,55,12.30
2013,07,27,00,56,12.20
2013,07,27,00,57,12.20
2013,07,27,00,58,12.20
2013,07,27,00,59,12.20
2013,07,27,01,00,12.20
2013,07,27,01,01,12.20
2013,07,27,01,02,12.10
2013,07,27,01,03,12.10
2013,07,27,01,04,12.10
2013,07,27,01,05,12.10
2013,07,27,01,06,12.10
2013,07,27,01,07,12.10
2013,07,27,01,08,12.00
2013,07,27,01,09,12.00
2013,07,27,01,10,12.00
2013,07,27,01,11,11.90
2013,07,27,01,12,11.90
2013,07,27,01,13,11.90
2013,07,27,01,14,11.90
2013,07,27,01,15,11.80
2013,07,27,01,16,11.80
2013,07,27,01,17,11.80
2013,07,27,01,18,11.80
2013,07,27,01,19,11.80
2013,07,27,01,20,11.80
2013,07,27,01,21,11.70
2013,07,27,01,22,11.70
2013,07,27,01,23,11.70
2013,07,27,01,24,11.70
2013,07,27,01,25,11.70
2013,07,27,01,26,11.70
2013,07,27,01,27,11.60
2013,07,27,01,28,11.60
2013,07,27,01,29,11.60
2013,07,27,01,30,11.60
2013,07,27,01,31,11.60
2013,07,27,01,32,11.60
2013,07,27,01,33,11.60
2013,07,27,01,34,11.60
2013,07,27,01,35,11.50
2013,07,27,01,36,11.50
2013,07,27,01,37,11.50
2013,07,27,01,38,11.50
2013,07,27,01,39,11.50
2013,07,27,01,40,11.50
2013,07,27,01,41,11.40
2013,07,27,01,42,11.40
2013,07,27,01,43,11.40
2013,07,27,01,44,11.40
2013,07,27,01,45,11.40
2013,07,27,01,46,11.40
2013,07,27,01,47,11.40
2013,07,27,01,48,11.40
2013,07,27,01,49,11.30
2013,07,27,01,50,11.30
2013,07,27,01,51,11.30
2013,07,27,01,52,11.30
2013,07,27,01,53,11.30
2013,07,27,01,54,11.30
2013,07,27,01,55,11.30
2013,07,27,01,56,11.30
2013,07,27,01,57,11.30
2013,07,27,01,58,11.30
2013,07,27,01,59,11.30
2013,07,27,02,00,11.30
2013,07,27,02,01,11.20
2013,07,27,02,02,11.20
2013,07,27,02,03,11.20
2013,07,27,02,04,11.20
2013,07,27,02,05,11.20
2013,07,27,02,06,11.20
2013,07,27,02,07,11.10
2013,07,27,02,08,11.10
2013,07,27,02,09,11.10
2013,07,27,02,10,11.10
2013,07,27,02,11,11.10
2013,07,27,02,12,11.10
2013,07,27,02,13,11.00
2013,07,27,02,14,11.00
2013,07,27,02,15,11.00
2013,07,27,02,16,11.00
2013,07,27,02,17,11.00
2013,07,27,02,18,10.90
2013,07,27,02,19,10.90
2013,07,27,02,20,10.90
2013,07,27,02,21,10.90
2013,07,27,02,22,10.90
2013,07,27,02,23,10.90
2013,07,27,02,24,10.80
2013,07,27,02,25,10.80
2013,07,27,02,26,10.80
2013,07,27,02,27,10.80
2013,07,27,02,28,10.80
2013,07,27,02,29,10.80
2013,07,27,02,30,10.80
2013,07,27,02,31,10.70
2013,07,27,02,32,10.70
2013,07,27,02,33,10.70
2013,07,27,02,34,10.70
2013,07,27,02,35,10.70
2013,07,27,02,36,10.70
2013,07,27,02,37,10.70
2013,07,27,02,38,10.70
2013,07,27,02,39,10.70
2013,07,27,02,40,10.70
2013,07,27,02,41,10.70
2013,07,27,02,42,10.70
2013,07,27,02,43,10.70
2013,07,27,02,44,10.70
2013,07,27,02,45,10.70
2013,07,27,02,46,10.60
2013,07,27,02,47,10.60
2013,07,27,02,48,10.60
2013,07,27,02,49,10.60
2013,07,27,02,50,10.60
2013,07,27,02,51,10.60
2013,07,27,02,52,10.60
2013,07,27,02,53,10.60
2013,07,27,02,54,10.60
2013,07,27,02,55,10.60
2013,07,27,02,56,10.60
2013,07,27,02,57,10.60
2013,07,27,02,58,10.50
2013,07,27,02,59,10.50
2013,07,27,03,00,10.50
2013,07,27,03,01,10.50
2013,07,27,03,02,10.40
2013,07,27,03,03,10.40
2013,07,27,03,06,10.40
2013,07,27,03,07,10.40
2013,07,27,03,08,10.30
2013,07,27,03,09,10.30
2013,07,27,03,10,10.30
2013,07,27,03,11,10.30
2013,07,27,03,12,10.30
2013,07,27,03,13,10.30
2013,07,27,03,14,10.30
2013,07,27,03,15,10.30
2013,07,27,03,16,10.30
2013,07,27,03,17,10.20
2013,07,27,03,18,10.20
2013,07,27,03,19,10.20
2013,07,27,03,20,10.20
2013,07,27,03,21,10.20
2013,07,27,03,22,10.20
2013,07,27,03,23,10.20
2013,07,27,03,24,10.20
2013,07,27,03,25,10.20
2013,07,27,03,26,10.20
2013,07,27,03,27,10.10
2013,07,27,03,28,10.10
2013,07,27,03,29,10.10
2013,07,27,03,30,10.10
2013,07,27,03,31,10.10
2013,07,27,03,32,10.10
2013,07,27,03,33,10.10
2013,07,27,03,34,10.10
2013,07,27,03,35,10.10
2013,07,27,03,36,10.10
2013,07,27,03,37,10.10
2013,07,27,03,38,10.10
2013,07,27,03,39,10.00
2013,07,27,03,40,10.00
2013,07,27,03,41,10.00
2013,07,27,03,42,10.00
2013,07,27,03,43,10.00
2013,07,27,03,44,9.90
2013,07,27,03,45,9.90
2013,07,27,03,46,9.90
2013,07,27,03,47,9.90
2013,07,27,03,48,9.90
2013,07,27,03,49,9.90
2013,07,27,03,50,9.90
2013,07,27,03,51,9.90
2013,07,27,03,52,9.80
2013,07,27,03,53,9.80
2013,07,27,03,54,9.80
2013,07,27,03,55,9.80
2013,07,27,03,56,9.80
2013,07,27,03,57,9.80
2013,07,27,03,58,9.80
2013,07,27,03,59,9.80
2013,07,27,04,00,9.80
2013,07,27,04,01,9.70
2013,07,27,04,02,9.70
2013,07,27,04,03,9.70
2013,07,27,04,04,9.70
2013,07,27,04,05,9.70
2013,07,27,04,06,9.70
2013,07,27,04,07,9.70
2013,07,27,04,08,9.70
2013,07,27,04,09,9.70
2013,07,27,04,10,9.70
2013,07,27,04,11,9.70
2013,07,27,04,12,9.60
2013,07,27,04,13,9.60
2013,07,27,04,14,9.60
2013,07,27,04,15,9.60
2013,07,27,04,16,9.60
2013,07,27,04,17,9.60
2013,07,27,04,18,9.60
2013,07,27,04,19,9.60
2013,07,27,04,20,9.60
2013,07,27,04,21,9.60
2013,07,27,04,22,9.60
2013,07,27,04,23,9.60
2013,07,27,04,24,9.60
2013,07,27,04,25,9.60
2013,07,27,04,26,9.60
2013,07,27,04,27,9.60
2013,07,27,04,28,9.60
2013,07,27,04,29,9.60
2013,07,27,04,30,9.60
2013,07,27,04,31,9.60
2013,07,27,04,32,9.60
2013,07,27,04,33,9.60
2013,07,27,04,34,9.60
2013,07,27,04,35,9.60
2013,07,27,04,36,9.60
2013,07,27,04,37,9.60
2013,07,27,04,38,9.60
2013,07,27,04,39,9.60
2013,07,27,04,40,9.60
2013,07,27,04,41,9.60
2013,07,27,04,42,9.60
2013,07,27,04,43,9.60
2013,07,27,04,44,9.60
2013,07,27,04,45,9.60
2013,07,27,04,46,9.60
2013,07,27,04,47,9.60
2013,07,27,04,48,9.60
2013,07,27,04,49,9.60
2013,07,27,04,50,9.60
2013,07,27,04,51,9.60
2013,07,27,04,52,9.60
2013,07,27,04,53,9.60
2013,07,27,04,54,9.60
2013,07,27,04,55,9.60
2013,07,27,04,56,9.60
2013,07,27,04,57,9.50
2013,07,27,04,58,9.50
2013,07,27,04,59,9.50
2013,07,27,05,00,9.50
2013,07,27,05,01,9.50
2013,07,27,05,02,9.50
2013,07,27,05,03,9.50
2013,07,27,05,04,9.50
2013,07,27,05,05,9.50
2013,07,27,05,06,9.50
2013,07,27,05,07,9.50
2013,07,27,05,08,9.50
2013,07,27,05,09,9.50
2013,07,27,05,10,9.50
2013,07,27,05,11,9.50
2013,07,27,05,12,9.50
2013,07,27,05,13,9.50
2013,07,27,05,14,9.50
2013,07,27,05,15,9.50
2013,07,27,05,16,9.50
2013,07,27,05,17,9.50
2013,07,27,05,18,9.40
2013,07,27,05,19,9.40
2013,07,27,05,20,9.40
2013,07,27,05,21,9.40
2013,07,27,05,22,9.40
2013,07,27,05,23,9.40
2013,07,27,05,24,9.40
2013,07,27,05,25,9.40
2013,07,27,05,26,9.40
2013,07,27,05,27,9.40
2013,07,27,05,28,9.40
2013,07,27,05,29,9.40
2013,07,27,05,30,9.40
2013,07,27,05,31,9.40
2013,07,27,05,32,9.30
2013,07,27,05,33,9.30
2013,07,27,05,34,9.30
2013,07,27,05,35,9.30
2013,07,27,05,36,9.30
2013,07,27,05,37,9.30
2013,07,27,05,38,9.30
2013,07,27,05,39,9.30
2013,07,27,05,40,9.30
2013,07,27,05,41,9.30
2013,07,27,05,42,9.30
2013,07,27,05,43,9.30
2013,07,27,05,44,9.30
2013,07,27,05,45,9.20
2013,07,27,05,46,9.20
2013,07,27,05,47,9.20
2013,07,27,05,48,9.20
2013,07,27,05,49,9.20
2013,07,27,05,50,9.20
2013,07,27,05,51,9.20
2013,07,27,05,52,9.20
2013,07,27,05,53,9.20
2013,07,27,05,54,9.10
2013,07,27,05,55,9.10
2013,07,27,05,56,9.10
2013,07,27,05,57,9.10
2013,07,27,05,58,9.10
2013,07,27,05,59,9.10
2013,07,27,06,00,9.10
2013,07,27,06,01,9.10
2013,07,27,06,02,9.10
2013,07,27,06,03,9.10
2013,07,27,06,04,9.10
2013,07,27,06,05,9.10
2013,07,27,06,06,9.10
2013,07,27,06,07,9.00
2013,07,27,06,08,9.00
2013,07,27,06,09,9.00
2013,07,27,06,10,9.00
2013,07,27,06,11,9.00
2013,07,27,06,12,9.00
2013,07,27,06,13,9.00
2013,07,27,06,14,9.00
2013,07,27,06,15,9.00
2013,07,27,06,16,9.00
2013,07,27,06,17,9.00
2013,07,27,06,18,9.00
2013,07,27,06,19,9.00
2013,07,27,06,20,9.00
2013,07,27,06,21,9.00
2013,07,27,06,22,9.00
2013,07,27,06,23,9.00
2013,07,27,06,24,9.00
2013,07,27,06,25,9.00
2013,07,27,06,26,9.00
2013,07,27,06,27,9.00
2013,07,27,06,28,9.00
2013,07,27,06,29,9.00
2013,07,27,06,30,9.00
2013,07,27,06,31,9.00
2013,07,27,06,32,9.10
2013,07,27,06,33,9.10
2013,07,27,06,34,9.10
2013,07,27,06,35,9.10
2013,07,27,06,36,9.10
2013,07,27,06,37,9.20
2013,07,27,06,38,9.20
2013,07,27,06,39,9.20
2013,07,27,06,40,9.20
2013,07,27,06,41,9.20
2013,07,27,06,42,9.20
2013,07,27,06,43,9.30
2013,07,27,06,44,9.30
2013,07,27,06,45,9.30
2013,07,27,06,46,9.30
2013,07,27,06,47,9.40
2013,07,27,06,48,9.40
2013,07,27,06,49,9.40
2013,07,27,06,50,9.40
2013,07,27,06,51,9.40
2013,07,27,06,52,9.50
2013,07,27,06,53,9.50
2013,07,27,06,54,9.50
2013,07,27,06,55,9.50
2013,07,27,06,56,9.60
2013,07,27,06,57,9.60
2013,07,27,06,58,9.60
2013,07,27,06,59,9.60
2013,07,27,07,00,9.60
2013,07,27,07,01,9.60
2013,07,27,07,02,9.60
2013,07,27,07,03,9.60
2013,07,27,07,04,9.60
2013,07,27,07,05,9.60
2013,07,27,07,06,9.60
2013,07,27,07,07,9.70
2013,07,27,07,08,9.70
2013,07,27,07,09,9.70
2013,07,27,07,10,9.70
2013,07,27,07,11,9.70
2013,07,27,07,12,9.70
2013,07,27,07,13,9.80
2013,07,27,07,14,9.80
2013,07,27,07,15,9.80
2013,07,27,07,16,9.90
2013,07,27,07,17,9.90
2013,07,27,07,18,9.90
2013,07,27,07,19,9.90
2013,07,27,07,20,10.00
2013,07,27,07,21,10.00
2013,07,27,07,22,10.10
2013,07,27,07,23,10.10
2013,07,27,07,24,10.10
2013,07,27,07,25,10.10
2013,07,27,07,26,10.20
2013,07,27,07,27,10.20
2013,07,27,07,28,10.20
2013,07,27,07,29,10.30
2013,07,27,07,30,10.30
2013,07,27,07,31,10.30
2013,07,27,07,32,10.30
2013,07,27,07,33,10.30
2013,07,27,07,34,10.30
2013,07,27,07,35,10.40
2013,07,27,07,36,10.40
2013,07,27,07,37,10.50
2013,07,27,07,38,10.50
2013,07,27,07,39,10.60
2013,07,27,07,40,10.60
2013,07,27,07,41,10.60
2013,07,27,07,42,10.70
2013,07,27,07,43,10.70
2013,07,27,07,44,10.70
2013,07,27,07,45,10.70
2013,07,27,07,46,10.80
2013,07,27,07,47,10.80
2013,07,27,07,48,10.80
2013,07,27,07,49,10.90
2013,07,27,07,50,10.90
2013,07,27,07,51,10.90
2013,07,27,07,52,11.00
2013,07,27,07,53,11.00
2013,07,27,07,54,11.10
2013,07,27,07,55,11.10
2013,07,27,07,56,11.20
2013,07,27,07,57,11.20
2013,07,27,07,58,11.20
2013,07,27,07,59,11.30
2013,07,27,08,00,11.30
2013,07,27,08,01,11.40
2013,07,27,08,02,11.40
2013,07,27,08,03,11.50
2013,07,27,08,04,11.60
2013,07,27,08,05,11.60
2013,07,27,08,06,11.70
2013,07,27,08,07,11.80
2013,07,27,08,08,11.90
2013,07,27,08,09,12.00
2013,07,27,08,10,12.10
2013,07,27,08,11,12.20
2013,07,27,08,12,12.30
2013,07,27,08,13,12.50
2013,07,27,08,14,12.60
2013,07,27,08,15,12.70
2013,07,27,08,16,12.90
2013,07,27,08,17,13.00
2013,07,27,08,18,13.20
2013,07,27,08,19,13.30
2013,07,27,08,20,13.50
2013,07,27,08,21,13.60
2013,07,27,08,22,13.80
2013,07,27,08,23,13.90
2013,07,27,08,24,14.10
2013,07,27,08,25,14.20
2013,07,27,08,26,14.30
2013,07,27,08,27,14.50
2013,07,27,08,28,14.60
2013,07,27,08,29,14.80
2013,07,27,08,30,14.90
2013,07,27,08,31,15.00
2013,07,27,08,32,15.00
2013,07,27,08,33,15.20
2013,07,27,08,34,15.40
2013,07,27,08,35,15.50
2013,07,27,08,36,15.60
2013,07,27,08,37,15.70
2013,07,27,08,38,15.80
2013,07,27,08,39,15.90
2013,07,27,08,40,16.00
2013,07,27,08,41,16.10
2013,07,27,08,42,16.20
2013,07,27,08,43,16.30
2013,07,27,08,44,16.40
2013,07,27,08,45,16.50
2013,07,27,08,46,16.60
2013,07,27,08,47,16.70
2013,07,27,08,48,16.80
2013,07,27,08,49,16.80
2013,07,27,08,50,16.90
2013,07,27,08,51,16.90
2013,07,27,08,52,17.00
2013,07,27,08,53,17.10
2013,07,27,08,54,17.10
2013,07,27,08,55,17.20
2013,07,27,08,56,17.30
2013,07,27,08,57,17.40
2013,07,27,08,58,17.40
2013,07,27,08,59,17.50
2013,07,27,09,00,17.60
2013,07,27,09,01,17.70
2013,07,27,09,02,17.80
2013,07,27,09,03,17.90
2013,07,27,09,04,17.90
2013,07,27,09,05,18.00
2013,07,27,09,06,18.10
2013,07,27,09,07,18.20
2013,07,27,09,08,18.20
2013,07,27,09,09,18.20
2013,07,27,09,10,18.20
2013,07,27,09,11,18.20
2013,07,27,09,12,18.30
2013,07,27,09,13,18.30
2013,07,27,09,14,18.30
2013,07,27,09,15,18.20
2013,07,27,09,16,18.20
2013,07,27,09,17,18.10
2013,07,27,09,18,18.00
2013,07,27,09,19,18.00
2013,07,27,09,20,18.00
2013,07,27,09,21,18.00
2013,07,27,09,22,18.00
2013,07,27,09,23,18.10
2013,07,27,09,24,18.10
2013,07,27,09,25,18.10
2013,07,27,09,26,18.20
2013,07,27,09,27,18.20
2013,07,27,09,28,18.20
2013,07,27,09,29,18.30
2013,07,27,09,30,18.30
2013,07,27,09,31,18.30
2013,07,27,09,32,18.40
2013,07,27,09,33,18.40
2013,07,27,09,34,18.40
2013,07,27,09,35,18.50
2013,07,27,09,36,18.50
2013,07,27,09,37,18.60
2013,07,27,09,38,18.70
2013,07,27,09,39,18.70
2013,07,27,09,40,18.70
2013,07,27,09,41,18.70
2013,07,27,09,42,18.60
2013,07,27,09,43,18.60
2013,07,27,09,44,18.50
2013,07,27,09,45,18.50
2013,07,27,09,46,18.40
2013,07,27,09,47,18.40
2013,07,27,09,48,18.40
2013,07,27,09,49,18.40
2013,07,27,09,50,18.40
2013,07,27,09,51,18.40
2013,07,27,09,52,18.40
2013,07,27,09,53,18.40
2013,07,27,09,54,18.40
2013,07,27,09,55,18.40
2013,07,27,09,56,18.40
2013,07,27,09,57,18.40
2013,07,27,09,58,18.50
2013,07,27,09,59,18.50
2013,07,27,10,00,18.60
2013,07,27,10,01,18.60
2013,07,27,10,02,18.60
2013,07,27,10,03,18.60
2013,07,27,10,04,18.50
2013,07,27,10,05,18.60
2013,07,27,10,06,18.60
2013,07,27,10,07,18.70
2013,07,27,10,08,18.70
2013,07,27,10,09,18.70
2013,07,27,10,10,18.80
2013,07,27,10,11,18.80
2013,07,27,10,12,18.80
2013,07,27,10,13,18.90
2013,07,27,10,14,18.90
2013,07,27,10,15,19.00
2013,07,27,10,16,19.10
2013,07,27,10,17,19.20
2013,07,27,10,18,19.20
2013,07,27,10,19,19.30
2013,07,27,10,20,19.40
2013,07,27,10,21,19.40
2013,07,27,10,22,19.40
2013,07,27,10,23,19.40
2013,07,27,10,24,19.40
2013,07,27,10,25,19.50
2013,07,27,10,26,19.50
2013,07,27,10,27,19.50
2013,07,27,10,28,19.50
2013,07,27,10,29,19.50
2013,07,27,10,30,19.40
2013,07,27,10,31,19.30
2013,07,27,10,32,19.30
2013,07,27,10,33,19.30
2013,07,27,10,34,19.30
2013,07,27,10,35,19.30
2013,07,27,10,36,19.30
2013,07,27,10,37,19.30
2013,07,27,10,38,19.30
2013,07,27,10,39,19.30
2013,07,27,10,40,19.30
2013,07,27,10,41,19.30
2013,07,27,10,42,19.30
2013,07,27,10,43,19.30
2013,07,27,10,44,19.30
2013,07,27,10,45,19.30
2013,07,27,10,46,19.30
2013,07,27,10,47,19.30
2013,07,27,10,48,19.30
2013,07,27,10,49,19.30
2013,07,27,10,50,19.30
2013,07,27,10,51,19.40
2013,07,27,10,52,19.40
2013,07,27,10,53,19.50
2013,07,27,10,54,19.50
2013,07,27,10,55,19.60
2013,07,27,10,56,19.60
2013,07,27,10,57,19.70
2013,07,27,10,58,19.80
2013,07,27,10,59,19.80
2013,07,27,11,00,19.80
2013,07,27,11,01,19.90
2013,07,27,11,02,19.90
2013,07,27,11,03,19.90
2013,07,27,11,04,19.90
2013,07,27,11,05,19.90
2013,07,27,11,06,19.90
2013,07,27,11,07,19.90
2013,07,27,11,08,19.80
2013,07,27,11,09,19.80
2013,07,27,11,10,19.80
2013,07,27,11,11,19.70
2013,07,27,11,12,19.80
2013,07,27,11,13,19.80
2013,07,27,11,14,19.80
2013,07,27,11,15,19.70
2013,07,27,11,16,19.70
2013,07,27,11,17,19.70
2013,07,27,11,18,19.80
2013,07,27,11,19,19.80
2013,07,27,11,20,19.80
2013,07,27,11,21,19.90
2013,07,27,11,22,19.90
2013,07,27,11,23,20.00
2013,07,27,11,24,20.00
2013,07,27,11,25,20.00
2013,07,27,11,26,20.00
2013,07,27,11,27,20.10
2013,07,27,11,28,20.20
2013,07,27,11,29,20.20
2013,07,27,11,30,20.20
2013,07,27,11,31,20.20
2013,07,27,11,32,20.20
2013,07,27,11,33,20.30
2013,07,27,11,34,20.30
2013,07,27,11,35,20.30
2013,07,27,11,36,20.30
2013,07,27,11,37,20.30
2013,07,27,11,38,20.40
2013,07,27,11,39,20.40
2013,07,27,11,40,20.40
2013,07,27,11,41,20.40
2013,07,27,11,42,20.50
2013,07,27,11,43,20.50
2013,07,27,11,44,20.60
2013,07,27,11,45,20.60
2013,07,27,11,46,20.60
2013,07,27,11,47,20.60
2013,07,27,11,48,20.60
2013,07,27,11,49,20.60
2013,07,27,11,50,20.60
2013,07,27,11,51,20.70
2013,07,27,11,52,20.70
2013,07,27,11,53,20.70
2013,07,27,11,54,20.70
2013,07,27,11,55,20.70
2013,07,27,11,56,20.70
2013,07,27,11,57,20.70
2013,07,27,11,58,20.60
2013,07,27,11,59,20.60
2013,07,27,12,00,20.60
2013,07,27,12,01,20.60
2013,07,27,12,02,20.70
2013,07,27,12,03,20.70
2013,07,27,12,04,20.80
2013,07,27,12,05,20.80
2013,07,27,12,06,20.90
2013,07,27,12,07,20.90
2013,07,27,12,08,20.90
2013,07,27,12,09,20.90
2013,07,27,12,10,21.00
2013,07,27,12,11,21.00
2013,07,27,12,12,21.00
2013,07,27,12,13,21.00
2013,07,27,12,14,20.90
2013,07,27,12,15,20.90
2013,07,27,12,16,20.90
2013,07,27,12,17,20.80
2013,07,27,12,18,20.80
2013,07,27,12,19,20.80
2013,07,27,12,20,20.80
2013,07,27,12,21,20.80
2013,07,27,12,22,20.80
2013,07,27,12,23,20.80
2013,07,27,12,24,20.80
2013,07,27,12,25,20.70
2013,07,27,12,26,20.70
2013,07,27,12,27,20.70
2013,07,27,12,28,20.80
2013,07,27,12,29,20.80
2013,07,27,12,30,20.90
2013,07,27,12,31,20.90
2013,07,27,12,32,20.90
2013,07,27,12,33,21.00
2013,07,27,12,34,21.00
2013,07,27,12,35,20.90
2013,07,27,12,36,21.00
2013,07,27,12,37,21.00
2013,07,27,12,38,21.00
2013,07,27,12,39,21.00
2013,07,27,12,40,21.10
2013,07,27,12,41,21.10
2013,07,27,12,42,21.20
2013,07,27,12,43,21.20
2013,07,27,12,44,21.30
2013,07,27,12,45,21.30
2013,07,27,12,46,21.30
2013,07,27,12,47,21.20
2013,07,27,12,48,21.10
2013,07,27,12,49,21.10
2013,07,27,12,50,21.00
2013,07,27,12,51,21.00
2013,07,27,12,52,21.00
2013,07,27,12,53,21.00
2013,07,27,12,54,21.10
2013,07,27,12,55,21.10
2013,07,27,12,56,21.10
2013,07,27,12,57,21.10
2013,07,27,12,58,21.10
2013,07,27,12,59,21.10
2013,07,27,13,00,21.10
2013,07,27,13,01,21.20
2013,07,27,13,02,21.20
2013,07,27,13,03,21.20
2013,07,27,13,04,21.30
2013,07,27,13,05,21.30
2013,07,27,13,06,21.30
2013,07,27,13,07,21.30
2013,07,27,13,08,21.40
2013,07,27,13,09,21.40
2013,07,27,13,10,21.40
2013,07,27,13,11,21.40
2013,07,27,13,12,21.40
2013,07,27,13,13,21.40
2013,07,27,13,14,21.40
2013,07,27,13,15,21.40
2013,07,27,13,16,21.40
2013,07,27,13,17,21.50
2013,07,27,13,18,21.60
2013,07,27,13,19,21.60
2013,07,27,13,20,21.70
2013,07,27,13,21,21.80
2013,07,27,13,22,21.80
2013,07,27,13,23,21.80
2013,07,27,13,24,21.80
2013,07,27,13,25,21.80
2013,07,27,13,26,21.80
2013,07,27,13,27,21.90
2013,07,27,13,28,21.90
2013,07,27,13,29,21.90
2013,07,27,13,30,21.90
2013,07,27,13,31,21.90
2013,07,27,13,32,22.00
2013,07,27,13,33,22.00
2013,07,27,13,34,22.10
2013,07,27,13,35,22.10
2013,07,27,13,36,22.00
2013,07,27,13,37,21.90
2013,07,27,13,38,21.80
2013,07,27,13,39,21.80
2013,07,27,13,40,21.80
2013,07,27,13,41,21.80
2013,07,27,13,42,21.80
2013,07,27,13,43,21.90
2013,07,27,13,44,21.90
2013,07,27,13,45,21.90
2013,07,27,13,46,21.90
2013,07,27,13,47,21.90
2013,07,27,13,48,21.90
2013,07,27,13,49,21.90
2013,07,27,13,50,21.90
2013,07,27,13,51,21.90
2013,07,27,13,52,22.00
2013,07,27,13,53,22.00
2013,07,27,13,54,21.90
2013,07,27,13,55,21.90
2013,07,27,13,56,21.90
2013,07,27,13,57,22.00
2013,07,27,13,58,22.00
2013,07,27,13,59,22.10
2013,07,27,14,00,22.10
2013,07,27,14,01,22.20
2013,07,27,14,02,22.20
2013,07,27,14,03,22.20
2013,07,27,14,04,22.20
2013,07,27,14,05,22.30
2013,07,27,14,06,22.30
2013,07,27,14,07,22.20
2013,07,27,14,08,22.20
2013,07,27,14,09,22.10
2013,07,27,14,10,22.10
2013,07,27,14,11,22.10
2013,07,27,14,12,22.10
2013,07,27,14,13,22.20
2013,07,27,14,14,22.20
2013,07,27,14,15,22.30
2013,07,27,14,16,22.40
2013,07,27,14,17,22.40
2013,07,27,14,18,22.50
2013,07,27,14,19,22.40
2013,07,27,14,20,22.50
2013,07,27,14,21,22.50
2013,07,27,14,22,22.50
2013,07,27,14,23,22.60
2013,07,27,14,24,22.60
2013,07,27,14,25,22.70
2013,07,27,14,26,22.70
2013,07,27,14,27,22.70
2013,07,27,14,28,22.70
2013,07,27,14,29,22.70
2013,07,27,14,30,22.70
2013,07,27,14,31,22.60
2013,07,27,14,32,22.60
2013,07,27,14,33,22.60
2013,07,27,14,34,22.60
2013,07,27,14,35,22.70
2013,07,27,14,36,22.80
2013,07,27,14,37,22.80
2013,07,27,14,38,22.90
2013,07,27,14,39,23.00
2013,07,27,14,40,23.00
2013,07,27,14,41,23.00
2013,07,27,14,42,23.00
2013,07,27,14,43,23.10
2013,07,27,14,44,23.10
2013,07,27,14,45,23.10
2013,07,27,14,46,23.20
2013,07,27,14,47,23.10
2013,07,27,14,48,23.10
2013,07,27,14,49,23.10
2013,07,27,14,50,23.10
2013,07,27,14,51,23.10
2013,07,27,14,52,23.10
2013,07,27,14,53,23.20
2013,07,27,14,54,23.20
2013,07,27,14,55,23.30
2013,07,27,14,56,23.40
2013,07,27,14,57,23.40
2013,07,27,14,58,23.50
2013,07,27,14,59,23.50
2013,07,27,15,00,23.50
2013,07,27,15,01,23.50
2013,07,27,15,02,23.50
2013,07,27,15,03,23.50
2013,07,27,15,04,23.40
2013,07,27,15,05,23.40
2013,07,27,15,06,23.40
2013,07,27,15,07,23.40
2013,07,27,15,08,23.40
2013,07,27,15,09,23.30
2013,07,27,15,10,23.30
2013,07,27,15,11,23.30
2013,07,27,15,12,23.30
2013,07,27,15,13,23.20
2013,07,27,15,14,23.20
2013,07,27,15,15,23.20
2013,07,27,15,16,23.30
2013,07,27,15,17,23.30
2013,07,27,15,18,23.40
2013,07,27,15,19,23.40
2013,07,27,15,20,23.40
2013,07,27,15,21,23.40
2013,07,27,15,22,23.40
2013,07,27,15,23,23.40
2013,07,27,15,24,23.30
2013,07,27,15,25,23.30
2013,07,27,15,26,23.20
2013,07,27,15,27,23.20
2013,07,27,15,28,23.20
2013,07,27,15,29,23.20
2013,07,27,15,30,23.30
2013,07,27,15,31,23.30
2013,07,27,15,32,23.30
2013,07,27,15,33,23.30
2013,07,27,15,34,23.30
2013,07,27,15,35,23.30
2013,07,27,15,36,23.40
2013,07,27,15,37,23.40
2013,07,27,15,38,23.40
2013,07,27,15,39,23.30
2013,07,27,15,40,23.30
2013,07,27,15,41,23.20
2013,07,27,15,42,23.20
2013,07,27,15,43,23.20
2013,07,27,15,44,23.10
2013,07,27,15,45,23.10
2013,07,27,15,46,23.20
2013,07,27,15,47,23.20
2013,07,27,15,48,23.20
2013,07,27,15,49,23.20
2013,07,27,15,50,23.20
2013,07,27,15,51,23.20
2013,07,27,15,52,23.30
2013,07,27,15,53,23.20
2013,07,27,15,54,23.20
2013,07,27,15,55,23.20
2013,07,27,15,56,23.10
2013,07,27,15,57,23.10
2013,07,27,15,58,23.10
2013,07,27,15,59,23.10
2013,07,27,16,00,23.10
2013,07,27,16,01,23.10
2013,07,27,16,02,23.10
2013,07,27,16,03,23.10
2013,07,27,16,04,23.10
2013,07,27,16,05,23.10
2013,07,27,16,06,23.10
2013,07,27,16,07,23.10
2013,07,27,16,08,23.10
2013,07,27,16,09,23.10
2013,07,27,16,10,23.10
2013,07,27,16,11,23.20
2013,07,27,16,12,23.20
2013,07,27,16,13,23.20
2013,07,27,16,14,23.30
2013,07,27,16,15,23.40
2013,07,27,16,16,23.40
2013,07,27,16,17,23.40
2013,07,27,16,18,23.40
2013,07,27,16,19,23.40
2013,07,27,16,20,23.40
2013,07,27,16,21,23.40
2013,07,27,16,22,23.50
2013,07,27,16,23,23.50
2013,07,27,16,24,23.50
2013,07,27,16,25,23.60
2013,07,27,16,26,23.60
2013,07,27,16,27,23.60
2013,07,27,16,28,23.70
2013,07,27,16,29,23.70
2013,07,27,16,30,23.80
2013,07,27,16,31,23.80
2013,07,27,16,32,23.80
2013,07,27,16,33,23.80
2013,07,27,16,34,23.80
2013,07,27,16,35,23.80
2013,07,27,16,36,23.80
2013,07,27,16,37,23.70
2013,07,27,16,38,23.60
2013,07,27,16,39,23.50
2013,07,27,16,40,23.50
2013,07,27,16,41,23.40
2013,07,27,16,42,23.40
2013,07,27,16,43,23.40
2013,07,27,16,44,23.40
2013,07,27,16,45,23.40
2013,07,27,16,46,23.40
2013,07,27,16,47,23.40
2013,07,27,16,48,23.40
2013,07,27,16,49,23.30
2013,07,27,16,50,23.30
2013,07,27,16,51,23.30
2013,07,27,16,52,23.20
2013,07,27,16,53,23.20
2013,07,27,16,54,23.10
2013,07,27,16,55,23.10
2013,07,27,16,56,23.10
2013,07,27,16,57,23.00
2013,07,27,16,58,23.00
2013,07,27,16,59,23.00
2013,07,27,17,00,22.90
2013,07,27,17,01,22.90
2013,07,27,17,02,22.80
2013,07,27,17,03,22.80
2013,07,27,17,04,22.80
2013,07,27,17,05,22.80
2013,07,27,17,06,22.90
2013,07,27,17,07,22.90
2013,07,27,17,08,23.00
2013,07,27,17,09,23.00
2013,07,27,17,10,23.10
2013,07,27,17,11,23.10
2013,07,27,17,12,23.10
2013,07,27,17,13,23.00
2013,07,27,17,14,23.00
2013,07,27,17,15,22.90
2013,07,27,17,16,22.90
2013,07,27,17,17,22.90
2013,07,27,17,18,22.90
2013,07,27,17,19,23.00
2013,07,27,17,20,22.90
2013,07,27,17,21,22.90
2013,07,27,17,22,23.00
2013,07,27,17,23,23.00
2013,07,27,17,24,23.00
2013,07,27,17,25,23.10
2013,07,27,17,26,23.10
2013,07,27,17,27,23.20
2013,07,27,17,28,23.20
2013,07,27,17,29,23.30
2013,07,27,17,30,23.30